• MPC Preparation (Info)

  • MPEC 2014-W107: 2014 WR202

    The following Minor Planet Electronic Circular may be linked-to from your own Web pages, but must not otherwise be redistributed electronically.

    A form allowing access to any MPEC is at the bottom of this page.


    Read MPEC 2014-W106 Read MPEC 2014-W108


    M.P.E.C. 2014-W107                               Issued 2014 Nov. 26, 15:04 UT
    
         The Minor Planet Electronic Circulars contain information on unusual
             minor planets and routine data on comets.  They are published
       on behalf of Commission 20 of the International Astronomical Union by the
              Minor Planet Center, Smithsonian Astrophysical Observatory,
                              Cambridge, MA 02138, U.S.A.
    
                 Prepared using the Tamkin Foundation Computer Network
    
                                  MPC@CFA.HARVARD.EDU
                URL https://www.minorplanetcenter.net/    ISSN 1523-6714
    
                                      2014 WR202
    
    Observations:
         K14WK2R* C2014 11 23.26937 03 37 57.15 +20 46 38.6          20.2 VqEW107G96
         K14WK2R  C2014 11 23.27547 03 37 56.27 +20 47 53.4          21.0 VqEW107G96
         K14WK2R  C2014 11 23.28156 03 37 55.34 +20 49 08.4          20.5 VqEW107G96
         K14WK2R  C2014 11 23.28765 03 37 54.50 +20 50 22.6          20.8 VqEW107G96
         K14WK2R  C2014 11 23.34762 03 37 45.94 +21 02 31.5          21.1 VqEW107G96
         K14WK2R  C2014 11 23.34812 03 37 45.88 +21 02 38.0          21.2 VqEW107G96
         K14WK2R  C2014 11 23.34862 03 37 45.79 +21 02 43.8          20.9 VqEW107G96
         K14WK2R  C2014 11 23.34912 03 37 45.71 +21 02 49.7          20.6 VqEW107G96
         K14WK2R  C2014 11 24.30125 03 36 04.01 +24 16 33.2          21.0 VqEW107G96
         K14WK2R  C2014 11 24.30231 03 36 03.86 +24 16 45.9          21.5 VqEW107G96
         K14WK2R  C2014 11 24.30338 03 36 03.69 +24 16 59.1          20.4 VqEW107G96
         K14WK2R  C2014 11 24.30444 03 36 03.57 +24 17 10.6          21.6 VqEW107G96
         K14WK2R  C2014 11 24.30552 03 36 03.34 +24 17 25.5          21.3 VqEW107G96
         K14WK2R KC2014 11 26.09553 03 32 45.76 +30 16 52.1          22.2 RoEW107291
         K14WK2R KC2014 11 26.09738 03 32 45.47 +30 17 14.9          21.3 RoEW107291
         K14WK2R KC2014 11 26.09922 03 32 45.24 +30 17 37.0          21.7 RoEW107291
    
    Observer details:
    291 LPL/Spacewatch II.  Observer A. F. Tubbiolo.  1.8-m f/2.7 reflector + CCD.
    G96 Mt. Lemmon Survey.  Observer E. J. Christensen.  Measurers
        E. J. Christensen, A. R. Gibbs, A. D. Grauer, R. E. Hill, J. A. Johnson,
        R. A. Kowalski, R. G. Matheny, S. M. Larson, F. C. Shelly.  1.5-m
        reflector + CCD.
    
    Orbital elements:
    2014 WR202                                               Earth MOID = 0.0897 AU
    Epoch 2014 Dec. 9.0 TT = JDT 2457000.5                  MPC
    M   4.55839              (2000.0)            P               Q
    n   0.52988445     Peri.    7.52540     +0.38673227     -0.88912716
    a   1.5124532      Node    60.01016     +0.83069334     +0.22062574
    e   0.2890102      Incl.   16.41287     +0.40048312     +0.40097031
    P   1.86           H   25.7           G   0.15           U   8
    Residuals in seconds of arc
    141123 G96  0.4+  0.2-    141123 G96  0.2-  0.3-    141124 G96  0.4-  0.7+
    141123 G96  0.3+  0.0     141123 G96  0.3-  0.4-    141126 291  0.3+  0.2-
    141123 G96  0.5-  0.6+    141124 G96  0.1+  0.3+    141126 291  0.3-  0.2+
    141123 G96  0.0   0.5+    141124 G96  0.2+  0.1+    141126 291  0.1-  0.0
    141123 G96  0.1-  0.4-    141124 G96  0.1+  0.3+
    141123 G96  0.1+  0.0     141124 G96  0.6+  1.1-
    
    Ephemeris:
    2014 WR202               a,e,i = 1.51, 0.29, 16                  q = 1.0753
    Date    TT    R. A. (2000) Decl.     Delta      r     Elong.  Phase     V
    2014 10 27    03 59 00.2 -30 33 19   0.1822  1.1172   128.8    43.9    23.9
    ...
    2014 11 11    03 53 51.5 -13 22 45   0.1158  1.0890   146.9    29.8    22.5
    ...
    2014 11 19    03 44 48.5 +06 46 53   0.09378 1.0801   167.3    11.6    21.4
    ...
    2014 11 25    03 34 46.6 +26 38 04   0.09008 1.0764   171.5     7.8    21.2
    2014 11 26    03 32 51.3 +29 58 14   0.09073 1.0760   168.3    10.8    21.3
    2014 11 27    03 30 52.2 +33 14 16   0.09174 1.0758   165.0    13.7    21.5
    ...
    2014 12 03    03 17 52.6 +50 19 00   0.1043  1.0756   147.9    29.2    22.2
    ...
    2014 12 11    02 59 22.3 +65 07 23   0.1330  1.0795   132.8    42.0    23.1
    ...
    2014 12 26    02 42 29.2 +77 20 47   0.2009  1.0990   120.4    50.5    24.3
    
    A. U. Tomatic                (C) Copyright 2014 MPC           M.P.E.C. 2014-W107
    

    Read MPEC 2014-W106 Read MPEC 2014-W108


    MPEC number:

    Enter an MPEC number in one of the following forms:

    • 1997-B01 (the full form)
    • J97B01 (the packed version of the full form)
    • B01 (the abbreviated form)